Simultaneous Nadir Overpasses (SNOs) Predictions

Prediction of SNOs between AQUA and GOES-15 Satellite Orbit:

Table of predicted SNOs for the next 14.0 days since TLE Epoch: 6/8/2024
Index Date Time (AQUA) AQUA Lat,Lon GOES-15 Lat,Lon Distance(km) Time Diff (sec)
1 06/09/2024 09:48:29 0.91, 65.23 0.11, 61.40 435.58 80
2 06/09/2024 22:08:37 0.10, 60.36 -0.13, 61.43 122.55 80
3 06/11/2024 21:52:03 -0.74, 64.41 -0.12, 61.41 340.78 80
4 06/12/2024 10:12:20 -0.28, 59.50 0.14, 61.36 212.55 80
5 06/14/2024 09:55:45 0.58, 63.55 0.14, 61.34 251.30 80
6 06/14/2024 22:15:52 0.45, 58.69 -0.16, 61.37 306.61 80
7 06/16/2024 21:59:16 -0.43, 62.74 -0.15, 61.36 157.29 80
8 06/17/2024 10:19:33 -0.54, 57.82 0.18, 61.31 396.04 80
9 06/19/2024 10:02:55 0.29, 61.90 0.18, 61.30 67.54 80
10 06/19/2024 22:23:01 0.70, 57.02 -0.20, 61.34 490.44 80
11 06/21/2024 22:06:23 -0.15, 61.09 -0.20, 61.34 27.35 80
